Regional Weather Roundup
Issued by NWS Upton, NY

Current Version | Previous Version | Graphics & Text | Print | Product List | Glossary Off
Versions: 1 2 3 4 5 6 7 8 9 10 11 12 13 14 15 16 17 18 19 20 21 22 23 24 25 26 27 28 29 30 31 32 33 34 35 36 37 38 39 40 41 42 43 44 45 46 47 48 49 50

000
ASUS41 KOKX 241405
RWROKX

REGIONAL WEATHER ROUNDUP
NATIONAL WEATHER SERVICE NEW YORK NY
900 AM EST WED DEC 24 2014

NOTE: "FAIR" INDICATES FEW OR NO CLOUDS BELOW 12,000 FEET WITH NO
SIGNIFICANT WEATHER AND/OR OBSTRUCTIONS TO VISIBILITY.

NYZ071-072-176-178-NJZ106-104-241500-
NEW YORK CITY METRO AREA


CITY           SKY/WX    TMP DP  RH WIND       PRES   REMARKS
CENTRAL PARK   CLOUDY    44  43  96 VRB6      29.99R FOG
LAGUARDIA APRT FOG       43  43 100 NE10      29.97S VSB 1/2
KENNEDY INTL   CLOUDY    49  46  90 E16       29.97S
NEWARK/LIBERTY DRZL/FOG  48  47  96 E6        29.96S VSB 1
BRNX BOT. GARD   N/A     43  43 100 E10       29.97S
TETERBORO      LGT RAIN  44  44 100 E5        29.97R FOG
$$

NYZ177-179-078>081-241500-
LONG ISLAND NEW YORK

CITY           SKY/WX    TMP DP  RH WIND       PRES   REMARKS
FARMINGDALE    CLOUDY    47  46  97 E8        29.97F FOG
ISLIP          FOG       48  46  93 E9        29.96F VSB 1
SHIRLEY        CLOUDY    47  46  97 MISG      29.99F FOG
WESTHAMPTON    CLOUDY    48  46  93 E8        30.00S
MONTAUK POINT    N/A     47  46  97 NE9       30.00F
$$

NYZ052-065-067-241500-
HUDSON VALLEY

CITY           SKY/WX    TMP DP  RH WIND       PRES   REMARKS
WHITE PLAINS   FOG       44  44 100 E12       29.96S VSB 1/2
NEWBURGH       FOG       43  43 100 E9        29.97S VSB 3/4
MONTGOMERY     CLOUDY    43  43 100 NE7       29.95F FOG
POUGHKEEPSIE   CLOUDY    44  41  89 CALM      29.97R FOG
ALBANY         FOG       39  36  89 CALM      29.96S VSB 3/4
$$

NJZ001-105-106-008-010-013-015-019>022-104-241500-
NEW JERSEY

CITY           SKY/WX    TMP DP  RH WIND       PRES   REMARKS
NEWARK/LIBERTY DRZL/FOG  48  47  96 E6        29.96S VSB 1
TETERBORO      LGT RAIN  44  44 100 E5        29.97R FOG
CALDWELL       FOG       45  44  97 E8        29.97R VSB 1
MORRISTOWN     DRZL/FOG  50  50 100 E5        29.96R VSB 3/4
SOMERVILLE     LGT RAIN  48  46  93 VRB5      29.93S FOG
SUSSEX         LGT RAIN  43  42  97 E3        29.94S FOG
ANDOVER        NOT AVBL
TRENTON        HVY RAIN  47  45  93 E12       29.91F FOG
MILLVILLE      LGT RAIN  52  51  97 SE9       29.88S
ATLANTIC CITY  RAIN      51  51 100 E9        29.91R FOG
WRIGHTSTOWN    LGT RAIN  50  50 100 E12       29.88F FOG
TOMS RIVER     CLOUDY    50  50 100 E6        29.92F
BELMAR         CLOUDY    48  45  87 E10       29.92F VSB 1/2
$$

PAZ047>061-062-071-241500-
EASTERN PENNSYLVANIA

CITY           SKY/WX    TMP DP  RH WIND       PRES   REMARKS
PHILADELPHIA   LGT RAIN  50  48  93 E6        29.90S FOG
ALLENTOWN      LGT RAIN  47  44  90 E8        29.89F FOG
SCRANTON       LGT RAIN  48  44  86 N8        29.84F
$$

CTZ002-004>006-009-010-012-RIZ004-006-007-MAZ004-011-015-241500-
SOUTHERN NEW ENGLAND
 IN CT

CITY           SKY/WX    TMP DP  RH WIND       PRES   REMARKS
BRADLEY INTL   DRIZZLE   41  39  93 N7        30.02F FOG
HARTFORD       FOG       41  40  96 N7        30.02F VSB 1
DANBURY        FOG       43  40  89 NE6       29.99S VSB 3/4
WTRBRY/OXFORD  FOG       41  36  81 E12       29.99F VSB 3/4
BRIDGEPORT     FOG       43  43 100 NE10      29.99F VSB 1
MERIDEN        FOG       41  39  93 N7        30.02S VSB 1
NEW HAVEN      CLOUDY    46  42  86 N7        30.00F FOG
CHESTER        FOG       45  45 100 NE6       30.00F VSB<1/4
GROTON         LGT RAIN  46  46 100 NE9       30.00F FOG
WILLIMANTIC    LGT RAIN  44  42  93 NE6       30.03F

 IN RI

CITY           SKY/WX    TMP DP  RH WIND       PRES   REMARKS
PROVIDENCE     FOG       44  43  96 N7        30.05F VSB 1/2
BLOCK ISLAND   CLOUDY    46  43  87 NE8       30.01F VSB<1/4
WESTERLY       LGT RAIN  46  46 100 NE6       30.02F

 IN MA

CITY           SKY/WX    TMP DP  RH WIND       PRES   REMARKS
BOSTON         DRZL/FOG  42  42 100 N7        30.06F VSB 1/2
WORCESTER      FOG       37  37 100 NE9       30.03S VSB<1/4 WCI  30
WESTFIELD      CLOUDY    41  38  89 N6        30.03F FOG
PROVINCETOWN   CLOUDY    48  46  93 E12G17    30.03F VSB 3/4
NANTUCKET      FOG       50  49  96 SE10      30.02R VSB 1/4
$$

ANZ330-335-338-340-345-350-353-355-241500-
COASTAL MARINE OBSERVATIONS


STATION/POSITION TIME  SKY/WX   TEMP    WIND        PRES    VSBY  WAVE
                                AIR SEA DIR/SP/G                  HT/PER
                 (UTC)          (F)     (DEG/KT/KT) (MB)    (MI)  (FT/S)
NY HARB ENTRANCE 1400            48 46  100/ 14/ 17 1014.4          5/ 7
4S FIRE IS       1400               47                N/A           5/ 8
20S FIRE ISLAND  1300            51 50              1014.8          6/ 8
23SW MTP         1400                                 N/A           5/ 7
HUDSON CANYON    1400            56 54  120/ 12/ 12 1014.4          5/ 9
EXECUTION ROCKS  1400            43 42   60/ 14/ 17   N/A
WESTERN LI SOUND 1400            43      70/ 14/ 17   N/A           2/ 3
CENTRAL LI SOUND 1300            42 44   90/ 12/ 14   N/A           1
EASTERN LI SOUND NOT AVBL
ROBBINS REEF     1400            47                 1013.4
$$


>>>>>>>>>>>>>>>>>>>>>>>>>>>> KEY <<<<<<<<<<<<<<<<<<<<<<<<<<<
>                                                          <
>     SKY/WX - SKY CONDITION/PRESENT WEATHER               <
>     TMP    - TEMPERATURE IN FAHRENHEIT                   <
>     DP     - DEWPOINT IN FAHRENHEIT                      <
>     RH     - RELATIVE HUMIDITY IN PERCENT                <
>     WIND   - DIRECTION AND SPEED IN MPH                  <
>     PRES   - MEAN SEA LEVEL PRESSURE IN INCHES OF HG     <
>     WCI    - WIND CHILL INDEX                            <
>     VSB    - VISIBILITY IN MILES                         <
>     HX     - HEAT INDEX                                  <
>     TC     - TEMPERATURE IN CELSIUS                      <
>     VRB    - VARIABLE WIND DIRECTION                     <
>                                                          <
>>>>>>>>>>>>>>>>>>>>>>>>>>>> KEY <<<<<<<<<<<<<<<<<<<<<<<<<<<




USA.gov is the U.S. government's official web portal to all federal, state and local government web resources and services.